Time,TemperatureF,DewpointF,PressureIn,WindDirection,WindDirectionDegrees,WindSpeedMPH,WindSpeedGustMPH,Humidity,HourlyPrecipIn,Conditions,Clouds,dailyrainin,SoftwareType,DateUTC
2013-10-03 00:12:00,45.0,38.0,29.72,SW,222,0.0,2.0,76,0.00,,,0.00,,2013-10-03 06:12:00,
2013-10-03 00:22:00,46.0,37.0,29.73,SSW,201,1.0,3.0,70,0.00,,,0.00,,2013-10-03 06:22:00,
2013-10-03 00:42:00,46.0,37.0,29.73,SSW,201,0.0,2.0,70,0.00,,,0.00,,2013-10-03 06:42:00,
2013-10-03 00:52:00,47.0,37.0,29.74,WSW,242,6.0,15.0,69,0.00,,,0.00,,2013-10-03 06:52:00,
2013-10-03 01:11:00,46.0,37.0,29.75,SW,231,7.0,14.0,70,0.00,,,0.00,,2013-10-03 07:11:00,
2013-10-03 01:22:00,45.0,36.0,29.76,SW,220,3.0,12.0,71,0.00,,,0.00,,2013-10-03 07:22:00,
2013-10-03 01:40:00,45.0,37.0,29.75,South,188,2.0,12.0,72,0.00,,,0.00,,2013-10-03 07:40:00,
2013-10-03 01:52:00,45.0,36.0,29.75,SSW,193,5.0,14.0,71,0.00,,,0.00,,2013-10-03 07:52:00,
2013-10-03 02:12:00,45.0,37.0,29.75,South,188,2.0,12.0,72,0.00,,,0.00,,2013-10-03 08:12:00,
2013-10-03 02:22:00,45.0,37.0,29.75,South,188,2.0,12.0,72,0.00,,,0.00,,2013-10-03 08:22:00,
2013-10-03 02:32:00,45.0,37.0,29.75,South,188,2.0,12.0,72,0.00,,,0.00,,2013-10-03 08:32:00,
2013-10-03 02:52:00,42.0,38.0,29.80,WSW,244,4.0,15.0,87,0.00,,,0.00,,2013-10-03 08:52:00,
2013-10-03 03:21:00,40.0,38.0,29.82,SSW,206,2.0,12.0,91,0.00,,,0.00,,2013-10-03 09:21:00,
2013-10-03 03:53:00,40.0,38.0,29.80,SE,137,5.0,10.0,91,0.00,,,0.00,,2013-10-03 09:53:00,
2013-10-03 04:22:00,40.0,38.0,29.78,SSE,149,2.0,7.0,91,0.00,,,0.00,,2013-10-03 10:22:00,
2013-10-03 04:52:00,41.0,39.0,29.78,SSE,168,1.0,5.0,93,0.00,,,0.00,,2013-10-03 10:52:00,
2013-10-03 05:12:00,41.0,39.0,29.79,SSW,206,5.0,12.0,92,0.00,,,0.00,,2013-10-03 11:12:00,
2013-10-03 05:22:00,41.0,39.0,29.79,SW,215,3.0,10.0,92,0.00,,,0.00,,2013-10-03 11:22:00,
2013-10-03 05:52:00,41.0,39.0,29.78,South,186,1.0,12.0,91,0.00,,,0.00,,2013-10-03 11:52:00,
2013-10-03 06:22:00,41.0,38.0,29.78,SSE,166,2.0,12.0,88,0.00,,,0.00,,2013-10-03 12:22:00,
2013-10-03 06:52:00,42.0,38.0,29.77,South,184,1.0,7.0,87,0.00,,,0.00,,2013-10-03 12:52:00,
2013-10-03 07:11:00,41.0,38.0,29.81,South,189,1.0,3.0,88,0.00,,,0.00,,2013-10-03 13:11:00,
2013-10-03 07:21:00,41.0,37.0,29.82,WSW,239,7.0,18.0,86,0.00,,,0.00,,2013-10-03 13:21:00,
2013-10-03 07:52:00,39.0,35.0,29.83,SSW,202,6.0,13.0,84,0.00,,,0.00,,2013-10-03 13:52:00,
2013-10-03 08:21:00,39.0,34.0,29.85,SSW,192,6.0,17.0,82,0.00,,,0.00,,2013-10-03 14:21:00,
2013-10-03 08:52:00,39.0,34.0,29.85,SW,235,5.0,16.0,81,0.00,,,0.00,,2013-10-03 14:52:00,
2013-10-03 09:21:00,39.0,34.0,29.88,North,0,2.0,0.0,83,0.00,,,0.00,,2013-10-03 15:21:00,
2013-10-03 09:53:00,39.0,33.0,29.89,SSW,200,5.0,16.0,80,0.00,,,0.00,,2013-10-03 15:53:00,
2013-10-03 10:23:00,40.0,34.0,29.90,WSW,247,6.0,15.0,80,0.00,,,0.00,,2013-10-03 16:23:00,
2013-10-03 10:42:00,40.0,35.0,29.89,WSW,250,6.0,16.0,81,0.00,,,0.00,,2013-10-03 16:42:00,
2013-10-03 10:53:00,40.0,34.0,29.89,SW,225,7.0,20.0,80,0.00,,,0.00,,2013-10-03 16:53:00,
2013-10-03 11:22:00,41.0,35.0,29.88,SSW,206,6.0,20.0,78,0.00,,,0.00,,2013-10-03 17:22:00,
2013-10-03 11:42:00,41.0,34.0,29.88,SSW,197,6.0,18.0,76,0.00,,,0.00,,2013-10-03 17:42:00,
2013-10-03 11:52:00,41.0,34.0,29.89,SW,215,3.0,17.0,77,0.00,,,0.00,,2013-10-03 17:52:00,
2013-10-03 12:12:00,41.0,34.0,29.88,SW,234,7.0,20.0,76,0.00,,,0.00,,2013-10-03 18:12:00,
2013-10-03 12:22:00,41.0,34.0,29.89,South,189,6.0,16.0,76,0.00,,,0.00,,2013-10-03 18:22:00,
2013-10-03 12:52:00,41.0,34.0,29.90,SSW,198,6.0,14.0,75,0.00,,,0.00,,2013-10-03 18:52:00,
2013-10-03 13:21:00,41.0,34.0,29.91,SSW,211,4.0,17.0,75,0.00,,,0.00,,2013-10-03 19:21:00,
2013-10-03 13:52:00,42.0,34.0,29.91,South,190,5.0,16.0,74,0.00,,,0.00,,2013-10-03 19:52:00,
2013-10-03 14:11:00,42.0,34.0,29.92,South,190,5.0,13.0,74,0.00,,,0.00,,2013-10-03 20:11:00,
2013-10-03 14:21:00,43.0,35.0,29.92,SW,222,5.0,14.0,73,0.00,,,0.00,,2013-10-03 20:21:00,
2013-10-03 14:42:00,42.0,34.0,29.92,WSW,249,4.0,16.0,73,0.00,,,0.00,,2013-10-03 20:42:00,
2013-10-03 14:52:00,42.0,35.0,29.93,SSW,192,5.0,18.0,77,0.00,,,0.00,,2013-10-03 20:52:00,
2013-10-03 15:21:00,43.0,36.0,29.95,SW,214,3.0,13.0,77,0.00,,,0.00,,2013-10-03 21:21:00,
2013-10-03 15:54:00,42.0,36.0,29.95,SSW,203,3.0,13.0,79,0.00,,,0.00,,2013-10-03 21:54:00,
2013-10-03 16:13:00,42.0,36.0,29.95,SSW,201,1.0,15.0,79,0.00,,,0.00,,2013-10-03 22:13:00,
2013-10-03 16:23:00,42.0,36.0,29.96,SW,215,5.0,12.0,79,0.00,,,0.00,,2013-10-03 22:23:00,
2013-10-03 16:43:00,42.0,36.0,29.96,NW,312,5.0,10.0,80,0.00,,,0.00,,2013-10-03 22:43:00,
2013-10-03 16:54:00,43.0,37.0,29.95,West,275,6.0,13.0,80,0.00,,,0.00,,2013-10-03 22:54:00,
2013-10-03 17:21:00,42.0,37.0,29.96,SW,224,4.0,9.0,81,0.00,,,0.00,,2013-10-03 23:21:00,
2013-10-03 17:52:00,42.0,38.0,29.98,SSW,213,1.0,7.0,85,0.00,,,0.00,,2013-10-03 23:52:00,
2013-10-03 18:12:00,42.0,38.0,29.97,SW,220,1.0,3.0,86,0.00,,,0.00,,2013-10-04 00:12:00,
2013-10-03 18:21:00,41.0,38.0,29.98,South,186,1.0,6.0,88,0.00,,,0.00,,2013-10-04 00:21:00,
2013-10-03 18:42:00,41.0,38.0,29.98,South,186,1.0,3.0,89,0.00,,,0.00,,2013-10-04 00:42:00,
2013-10-03 18:52:00,41.0,38.0,29.99,South,186,0.0,3.0,89,0.00,,,0.00,,2013-10-04 00:52:00,
2013-10-03 19:12:00,41.0,38.0,29.99,South,186,2.0,3.0,90,0.00,,,0.00,,2013-10-04 01:12:00,
2013-10-03 19:21:00,40.0,37.0,30.01,South,186,1.0,3.0,90,0.00,,,0.00,,2013-10-04 01:21:00,
2013-10-03 19:52:00,40.0,38.0,30.02,South,186,1.0,3.0,92,0.00,,,0.00,,2013-10-04 01:52:00,
2013-10-03 20:22:00,40.0,38.0,30.05,NNW,346,6.0,12.0,94,0.00,,,0.00,,2013-10-04 02:22:00,
2013-10-03 20:52:00,39.0,37.0,30.06,NNE,19,5.0,15.0,93,0.00,,,0.00,,2013-10-04 02:52:00,
2013-10-03 21:22:00,38.0,36.0,30.07,North,3,7.0,16.0,93,0.00,,,0.00,,2013-10-04 03:22:00,
2013-10-03 21:59:00,38.0,36.0,30.08,North,356,5.0,12.0,94,0.00,,,0.00,,2013-10-04 03:59:00,
2013-10-03 23:04:00,38.0,36.0,30.09,NNE,13,4.0,8.0,93,0.00,,,0.00,,2013-10-04 05:04:00,
2013-10-03 23:26:00,38.0,36.0,30.09,NNW,344,3.0,6.0,92,0.00,,,0.00,,2013-10-04 05:26:00,
2013-10-03 23:57:00,38.0,36.0,30.11,NNW,340,3.0,7.0,91,0.00,,,0.00,,2013-10-04 05:57:00,